Location: Koussan�
(15.2012°N, 12.5548°W)
Time: 18:54:24
(UTC+00:00)

Cosmos 407 Rocket - Pass Details

Date: 20 October 2020
Orbit: 743 x 787 km, 74.1° (Epoch: 30 November)

Event Time Altitude Azimuth Distance (km) Brightness Sun altitude
Rises 18:38:09 0° 344° (NNW) 3,239 6.8 -3.6°
Reaches altitude 10° 18:40:31 10° 342° (NNW) 2,318 6.1 -4.1°
Maximum altitude 18:45:47 75° 258° (WSW) 809 3.9 -5.4°
Drops below altitude 10° 18:51:05 10° 173° (S) 2,335 6.1 -6.6°
Sets 18:53:29 0° 171° (S) 3,265 6.8 -7.2°
